Weather History for KBIL - May, 2012

Change the Weather History Date:

Thursday, May 24, 2012

  Actual Average Record
Temperature  
Mean Temperature 50 °F 58 °F  
Max Temperature 60 °F 70 °F 90 °F (1941)
Min Temperature 40 °F 46 °F 34 °F (1975)
Degree Days  
Heating Degree Days 15 8  
Month to date heating degree days 216 262  
Since 1 July heating degree days 5721 6639  
Cooling Degree Days 0 1  
Month to date cooling degree days 20 6  
Year to date cooling degree days 34 7  
Moisture  
Dew Point 33 °F    
Average Humidity 52    
Maximum Humidity 70    
Minimum Humidity 33    
Precipitation  
Precipitation 0.01 in 0.07 in 3.12 in (2011)
Month to date precipitation 0.49 1.65  
Year to date precipitation 2.68 5.33  
Snow  
Snow 0.00 in 0.00 in 0.40 in (1975)
Month to date snowfall 0.0 1.9  
Since 1 July snowfall 35.1 54.9  
Snow Depth 0.00 in    
Sea Level Pressure  
Sea Level Pressure 29.75 in    
Wind  
Wind Speed 11 mph (North)    
Max Wind Speed 22 mph    
Max Gust Speed 26 mph    
Visibility 10 miles    
Events Rain    
T = Trace of Precipitation, MM = Missing Value Source: NWS Daily Summary

Daily Weather History Graph

Daily Weather History Graph

Search for Another Location

Airport or City:

Trip Planner

Search our weather history database for the weather conditions in past years. The results will help you decide how hot, cold, wet, or windy it might be!

Date:

Astronomy

May. 24, 2012 Rise Set
Actual Time 5:32 AM MDT 8:49 PM MDT
Civil Twilight 4:56 AM MDT 9:26 PM MDT
Nautical Twilight 4:09 AM MDT 10:13 PM MDT
Astronomical Twilight 3:10 AM MDT 11:13 PM MDT
Moon 8:37 AM MDT (5/24) 11:48 PM MDT (5/24)
Length of Visible Light 16h 29m
Length of Day
15h 16m
Waxing Crescent, 13% of the Moon is Illuminated
May 24
Waxing Crescent
May 28
First Quarter
Jun 4
Full
Jun 11
Last Quarter
Jun 19
New

Hourly Weather History & Observations

Time (MDT) Temp. Windchill Dew Point Humidity Pressure Visibility Wind Dir Wind Speed Gust Speed Precip Events Conditions
12:53 AM 46.0 °F 41.0 °F 30.9 °F 56% 29.68 in 10.0 mi WNW 10.4 mph - N/A   Scattered Clouds
1:53 AM 46.0 °F 41.4 °F 30.9 °F 56% 29.68 in 10.0 mi WNW 9.2 mph - N/A   Partly Cloudy
2:53 AM 44.1 °F 37.4 °F 30.0 °F 58% 29.68 in 10.0 mi WNW 13.8 mph - N/A   Partly Cloudy
3:53 AM 44.1 °F 38.6 °F 28.0 °F 53% 29.71 in 10.0 mi WNW 10.4 mph - N/A   Partly Cloudy
4:53 AM 42.1 °F 37.1 °F 30.0 °F 62% 29.71 in 10.0 mi WSW 8.1 mph - N/A   Scattered Clouds
5:53 AM 39.9 °F 35.8 °F 30.9 °F 70% 29.72 in 10.0 mi South 5.8 mph - N/A   Scattered Clouds
6:53 AM 41.0 °F 34.3 °F 30.9 °F 67% 29.73 in 10.0 mi SSW 11.5 mph - N/A   Scattered Clouds
7:53 AM 45.0 °F 41.2 °F 30.9 °F 58% 29.73 in 10.0 mi Variable 6.9 mph - N/A   Scattered Clouds
8:17 AM 51.8 °F - 28.4 °F 41% 29.73 in 10.0 mi NW 17.3 mph - N/A   Partly Cloudy
8:53 AM 53.1 °F - 30.0 °F 41% 29.71 in 10.0 mi NW 18.4 mph - N/A   Partly Cloudy
9:53 AM 55.4 °F - 28.4 °F 36% 29.73 in 10.0 mi WNW 12.7 mph - N/A   Scattered Clouds
10:53 AM 55.0 °F - 30.0 °F 38% 29.70 in 10.0 mi North 12.7 mph 18.4 mph N/A   Mostly Cloudy
11:53 AM 57.0 °F - 30.0 °F 36% 29.70 in 10.0 mi NW 12.7 mph 25.3 mph N/A   Mostly Cloudy
12:53 PM 59.0 °F - 30.0 °F 33% 29.69 in 10.0 mi North 9.2 mph - 0.00 in   Mostly Cloudy
1:53 PM 57.9 °F - 30.0 °F 35% 29.70 in 10.0 mi Variable 3.5 mph - N/A   Scattered Clouds
2:53 PM 54.0 °F - 35.1 °F 49% 29.72 in 10.0 mi NE 12.7 mph - N/A   Mostly Cloudy
3:00 PM 53.6 °F - 35.6 °F 51% 29.73 in 10.0 mi ENE 15.0 mph - N/A   Mostly Cloudy
3:53 PM 52.0 °F - 39.9 °F 63% 29.74 in 10.0 mi NNE 10.4 mph - 0.00 in Rain Light Rain
4:53 PM 53.1 °F - 39.9 °F 61% 29.74 in 10.0 mi ENE 12.7 mph - 0.01 in   Scattered Clouds
5:53 PM 55.0 °F - 36.0 °F 49% 29.75 in 10.0 mi NNE 16.1 mph 24.2 mph N/A   Scattered Clouds
6:53 PM 51.1 °F - 35.1 °F 54% 29.78 in 10.0 mi NNE 17.3 mph - N/A   Scattered Clouds
7:53 PM 48.9 °F - 36.0 °F 61% 29.81 in 10.0 mi NE 18.4 mph - N/A   Scattered Clouds
8:53 PM 46.9 °F - 36.0 °F 66% 29.84 in 10.0 mi ENE 12.7 mph - N/A   Mostly Cloudy
9:53 PM 46.0 °F 41.4 °F 36.0 °F 68% 29.88 in 10.0 mi NNE 9.2 mph - N/A   Overcast
10:53 PM 45.0 °F 40.6 °F 35.1 °F 68% 29.90 in 10.0 mi NNE 8.1 mph - N/A   Overcast
11:53 PM 45.0 °F 39.7 °F 32.0 °F 60% 29.93 in 10.0 mi NE 10.4 mph - N/A   Overcast